| time (UTC) | temp F | wind direction | speed MPH | gust MPH | rain 1hr in | rain 24hr in | rain mn in | humidity % | barometer mb |
| 20260906173012 | 78 | 95 | 8.0 | 15.0 | 0.00 | 0.00 | 0.00 | 72 | 1016.5 |
| 20260906171506 | 77 | 117 | 7.0 | 13.0 | 0.00 | 0.00 | 0.00 | 75 | 1016.7 |
| 20260906170012 | 77 | 169 | 5.0 | 15.0 | 0.00 | 0.00 | 0.00 | 74 | 1016.7 |
| 20260906164512 | 77 | 103 | 10.0 | 14.0 | 0.00 | 0.00 | 0.00 | 75 | 1016.9 |
| 20260906163018 | 76 | 101 | 6.0 | 15.0 | 0.00 | 0.00 | 0.00 | 74 | 1017.0 |
| 20260906161510 | 76 | 144 | 8.0 | 13.0 | 0.00 | 0.00 | 0.00 | 73 | 1017.3 |
| 20260906160001 | 76 | 128 | 7.0 | 12.0 | 0.00 | 0.00 | 0.00 | 77 | 1017.5 |
| 20260906154511 | 76 | 184 | 7.0 | 13.0 | 0.00 | 0.00 | 0.00 | 78 | 1017.4 |
| 20260906153128 | 75 | 134 | 9.0 | 12.0 | 0.00 | 0.00 | 0.00 | 80 | 1017.2 |
| 20260906151628 | 74 | 115 | 5.0 | 11.0 | 0.00 | 0.00 | 0.00 | 81 | 1017.5 |
| 20260906150125 | 74 | 155 | 5.0 | 10.0 | 0.00 | 0.00 | 0.00 | 83 | 1017.4 |
| 20260906144513 | 73 | 88 | 4.0 | 9.0 | 0.00 | 0.00 | 0.00 | 86 | 1017.3 |
| 20260906143013 | 70 | 119 | 5.0 | 8.0 | 0.00 | 0.00 | 0.00 | 88 | 1017.1 |
| 20260906141521 | 70 | 103 | 4.0 | 11.0 | 0.00 | 0.00 | 0.00 | 88 | 1017.1 |
| 20260906140008 | 71 | 136 | 6.0 | 9.0 | 0.00 | 0.00 | 0.00 | 88 | 1017.2 |
| 20260906134636 | 69 | 97 | 3.0 | 8.0 | 0.00 | 0.00 | 0.00 | 92 | 1017.4 |
| 20260906133001 | 67 | 121 | 4.0 | 7.0 | 0.00 | 0.00 | 0.00 | 93 | 1017.3 |
| 20260906131515 | 66 | 116 | 5.0 | 10.0 | 0.00 | 0.00 | 0.00 | 93 | 1017.3 |
| 20260906130150 | 66 | 123 | 4.0 | 9.0 | 0.00 | 0.00 | 0.00 | 94 | 1017.3 |
| 20260906124623 | 65 | 82 | 5.0 | 8.0 | 0.00 | 0.00 | 0.00 | 94 | 1017.1 |
| 20260906123010 | 65 | 107 | 6.0 | 9.0 | 0.00 | 0.00 | 0.00 | 94 | 1017.0 |
| 20260906121512 | 65 | 109 | 3.0 | 7.0 | 0.00 | 0.00 | 0.00 | 94 | 1017.0 |
| 20260906120129 | 64 | 94 | 2.0 | 4.0 | 0.00 | 0.00 | 0.00 | 93 | 1016.8 |
| 20260906114507 | 64 | 93 | 2.0 | 3.0 | 0.00 | 0.00 | 0.00 | 93 | 1016.9 |
| 20260906113123 | 64 | 93 | 0.0 | 3.0 | 0.00 | 0.00 | 0.00 | 93 | 1016.9 |
| 20260906111509 | 64 | 93 | 0.0 | 2.0 | 0.00 | 0.00 | 0.00 | 93 | 1016.8 |
| 20260906110011 | 64 | 93 | 1.0 | 4.0 | 0.00 | 0.00 | 0.00 | 93 | 1016.5 |
| 20260906104511 | 64 | 93 | 1.0 | 3.0 | 0.00 | 0.00 | 0.00 | 93 | 1016.4 |
| 20260906103128 | 64 | 135 | 1.0 | 4.0 | 0.00 | 0.00 | 0.00 | 93 | 1016.2 |
| 20260906101503 | 64 | 153 | 1.0 | 7.0 | 0.00 | 0.00 | 0.00 | 93 | 1016.1 |
| 20260906100022 | 64 | 100 | 1.0 | 6.0 | 0.00 | 0.00 | 0.00 | 93 | 1016.0 |
| 20260906094515 | 64 | 78 | 3.0 | 5.0 | 0.00 | 0.00 | 0.00 | 93 | 1015.7 |
| 20260906093016 | 64 | 67 | 1.0 | 5.0 | 0.00 | 0.00 | 0.00 | 93 | 1015.7 |
| 20260906091514 | 64 | 67 | 1.0 | 3.0 | 0.00 | 0.00 | 0.00 | 92 | 1015.7 |
| 20260906090012 | 64 | 67 | 1.0 | 3.0 | 0.00 | 0.00 | 0.00 | 92 | 1015.8 |
| 20260906084515 | 65 | 57 | 0.0 | 3.0 | 0.00 | 0.00 | 0.00 | 92 | 1015.9 |
| 20260906083016 | 65 | 53 | 1.0 | 4.0 | 0.00 | 0.00 | 0.00 | 92 | 1016.0 |
| 20260906081501 | 65 | 53 | 2.0 | 3.0 | 0.00 | 0.00 | 0.00 | 92 | 1015.7 |
| 20260906080125 | 64 | 92 | 1.0 | 4.0 | 0.00 | 0.00 | 0.00 | 92 | 1015.5 |
| 20260906074513 | 65 | 55 | 1.0 | 3.0 | 0.00 | 0.00 | 0.00 | 92 | 1015.6 |
| 20260906073128 | 65 | 50 | 2.0 | 5.0 | 0.00 | 0.00 | 0.00 | 92 | 1015.7 |
| 20260906071630 | 65 | 82 | 2.0 | 4.0 | 0.00 | 0.00 | 0.00 | 91 | 1015.9 |
| 20260906070015 | 65 | 82 | 0.0 | 2.0 | 0.00 | 0.00 | 0.00 | 91 | 1016.1 |
| 20260906064514 | 66 | 82 | 1.0 | 5.0 | 0.00 | 0.00 | 0.00 | 90 | 1016.3 |
| 20260906063126 | 66 | 70 | 2.0 | 6.0 | 0.00 | 0.00 | 0.00 | 90 | 1016.2 |
| 20260906061516 | 66 | 75 | 2.0 | 5.0 | 0.00 | 0.00 | 0.00 | 90 | 1016.0 |
| 20260906060016 | 66 | 87 | 2.0 | 4.0 | 0.00 | 0.00 | 0.00 | 90 | 1016.1 |
| 20260906054624 | 67 | 92 | 2.0 | 6.0 | 0.00 | 0.00 | 0.00 | 89 | 1016.0 |
| 20260906053136 | 67 | 87 | 1.0 | 4.0 | 0.00 | 0.00 | 0.00 | 89 | 1015.9 |
| 20260906051627 | 67 | 87 | 1.0 | 3.0 | 0.00 | 0.00 | 0.00 | 88 | 1016.0 |
| 20260906050009 | 68 | 87 | 2.0 | 4.0 | 0.00 | 0.00 | 0.00 | 87 | 1016.2 |
| 20260906044515 | 68 | 87 | 2.0 | 4.0 | 0.00 | 0.00 | 0.00 | 87 | 1016.2 |
| 20260906043022 | 68 | 87 | 1.0 | 4.0 | 0.00 | 0.00 | 0.00 | 87 | 1016.0 |
| 20260906041514 | 69 | 87 | 0.0 | 4.0 | 0.00 | 0.00 | 0.00 | 86 | 1016.1 |
| 20260906040004 | 69 | 87 | 1.0 | 3.0 | 0.00 | 0.00 | 0.00 | 85 | 1016.1 |
| 20260906034625 | 69 | 92 | 2.0 | 6.0 | 0.00 | 0.00 | 0.00 | 85 | 1016.1 |
| 20260906033006 | 70 | 88 | 2.0 | 3.0 | 0.00 | 0.00 | 0.00 | 85 | 1016.1 |
| 20260906031512 | 70 | 88 | 0.0 | 3.0 | 0.00 | 0.00 | 0.00 | 84 | 1016.2 |
| 20260906030007 | 70 | 84 | 1.0 | 4.0 | 0.00 | 0.00 | 0.00 | 84 | 1016.1 |
| 20260906024507 | 70 | 76 | 2.0 | 8.0 | 0.00 | 0.00 | 0.00 | 84 | 1016.1 |
| 20260906023015 | 71 | 34 | 2.0 | 7.0 | 0.00 | 0.00 | 0.00 | 83 | 1016.2 |
| 20260906021510 | 71 | 61 | 2.0 | 6.0 | 0.00 | 0.00 | 0.00 | 83 | 1016.1 |
| 20260906020011 | 72 | 49 | 2.0 | 5.0 | 0.00 | 0.00 | 0.00 | 82 | 1015.7 |
| 20260906014513 | 72 | 50 | 1.0 | 4.0 | 0.00 | 0.00 | 0.00 | 83 | 1015.4 |
| 20260906013008 | 71 | 15 | 1.0 | 2.0 | 0.00 | 0.00 | 0.00 | 83 | 1014.9 |
| 20260906011509 | 72 | 101 | 0.0 | 2.0 | 0.00 | 0.00 | 0.00 | 80 | 1014.6 |
| 20260906010128 | 73 | 101 | 0.0 | 1.0 | 0.00 | 0.00 | 0.00 | 79 | 1014.2 |
| 20260906004627 | 74 | 101 | 1.0 | 3.0 | 0.00 | 0.00 | 0.00 | 77 | 1013.6 |
| 20260906003021 | 75 | 78 | 3.0 | 6.0 | 0.00 | 0.00 | 0.00 | 76 | 1013.1 |
| 20260906001510 | 76 | 97 | 3.0 | 6.0 | 0.00 | 0.00 | 0.00 | 74 | 1013.2 |
| 20260906000009 | 77 | 88 | 2.0 | 6.0 | 0.00 | 0.00 | 0.00 | 71 | 1013.3 |
| 20260905234622 | 78 | 78 | 3.0 | 10.0 | 0.00 | 0.00 | 0.00 | 69 | 1013.2 |
| 20260905233002 | 79 | 42 | 6.0 | 11.0 | 0.00 | 0.00 | 0.00 | 70 | 1013.2 |
| 20260905231513 | 79 | 40 | 6.0 | 14.0 | 0.00 | 0.00 | 0.00 | 70 | 1013.3 |
| 20260905230132 | 79 | 48 | 4.0 | 13.0 | 0.00 | 0.00 | 0.00 | 69 | 1013.6 |
| 20260905224519 | 79 | 34 | 8.0 | 13.0 | 0.00 | 0.00 | 0.00 | 69 | 1013.9 |
| 20260905223003 | 79 | 31 | 3.0 | 13.0 | 0.00 | 0.00 | 0.00 | 72 | 1013.8 |
| 20260905221512 | 79 | 66 | 4.0 | 12.0 | 0.00 | 0.00 | 0.00 | 71 | 1013.8 |
| 20260905220011 | 78 | 60 | 4.0 | 11.0 | 0.00 | 0.00 | 0.00 | 72 | 1014.1 |
| 20260905214507 | 78 | 57 | 7.0 | 12.0 | 0.00 | 0.00 | 0.00 | 71 | 1014.3 |
| 20260905213012 | 79 | 61 | 6.0 | 12.0 | 0.00 | 0.00 | 0.00 | 71 | 1014.3 |
| 20260905211511 | 79 | 15 | 6.0 | 11.0 | 0.00 | 0.00 | 0.00 | 71 | 1014.3 |
| 20260905210008 | 78 | 60 | 7.0 | 13.0 | 0.00 | 0.00 | 0.00 | 71 | 1014.5 |
| 20260905204512 | 78 | 31 | 3.0 | 10.0 | 0.00 | 0.00 | 0.00 | 73 | 1014.9 |
| 20260905203124 | 77 | 63 | 3.0 | 9.0 | 0.00 | 0.00 | 0.00 | 73 | 1015.3 |
| 20260905201518 | 77 | 34 | 3.0 | 8.0 | 0.00 | 0.00 | 0.00 | 72 | 1015.5 |
| 20260905200023 | 76 | 47 | 3.0 | 9.0 | 0.00 | 0.00 | 0.00 | 75 | 1015.6 |
| 20260905194627 | 76 | 48 | 1.0 | 6.0 | 0.00 | 0.00 | 0.00 | 74 | 1016.0 |
| 20260905193126 | 75 | 56 | 3.0 | 7.0 | 0.00 | 0.00 | 0.00 | 77 | 1015.9 |
| 20260905191626 | 75 | 71 | 1.0 | 7.0 | 0.00 | 0.00 | 0.00 | 76 | 1015.9 |
| 20260905190011 | 75 | 34 | 2.0 | 5.0 | 0.00 | 0.00 | 0.00 | 78 | 1016.1 |
| 20260905184519 | 75 | 77 | 2.0 | 6.0 | 0.00 | 0.00 | 0.00 | 80 | 1016.1 |
| 20260905183010 | 73 | 55 | 1.0 | 6.0 | 0.00 | 0.00 | 0.00 | 79 | 1016.1 |
| 20260905181512 | 73 | 138 | 4.0 | 7.0 | 0.00 | 0.00 | 0.00 | 82 | 1016.1 |
| 20260905180140 | 73 | 111 | 5.0 | 8.0 | 0.00 | 0.00 | 0.00 | 81 | 1016.0 |
| 20260905174524 | 73 | 48 | 3.0 | 6.0 | 0.00 | 0.00 | 0.00 | 82 | 1016.0 |